TOURFACTS.DK  
Stats and Facts from Tour de France.

Tour de France 2018 starts in 258 days
  Riders   Stages   Teams   Summits   Yearly  


 
Search by year

 2017 - St. 21:  14824 starters.
  5131 different riders.
  634 teams.
  2232 stages.
  454 restdays.
  439589.60 km.
  5653 abandonnees.


Top 3
Christopher Froome86:20:55
Rigoberto Uran86:21:49
Romain Bardet86:23:15
Warren Barguil169 pt.
Primoz Roglic80 pt.
Thomas De Gendt64 pt.
Michael Matthews359 pt.
André Greipel234 pt.
Edvald Boasson Hagen220 pt.
Simon Yates86:27:09
Louis Meintjes86:29:15
Emanuel Buchmann86:54:16
Facts from Tour de France 2015
  |   Stages.  |   Stage winners.  |   Days in yellow  |   Average speed.  |   Route.  |   Teams.  |   All riders.  |   Rookies.  |   Withdrawls.  |  

  |   GC.  |   Polka  |   Green  |   White  |   Summits. (In tour)  |   Summits. (Points)  |   Miscellaneous.  |  

Stage 17 on 22 - 07 - 2015
         Owning:    Christopher Froome      Christopher Froome      Peter Sagan      Nairo Quintana  

Pick a stage:  1 2 3 4 5 6 7 8 9 10 11 12 13 14 15 16 17 18 19 20 21
  Digne-les-BainsPra-Loup | Dist: 161.00 km.
Cat: 3Col des LèquesPOLRafal Majka
2 points
 
Cat: 3Col de Toutes AuresERIDaniel Teklehaimanot
1 point
 
Cat: 2Col de la Colle-Saint-MichelBELSerge Pauwels
5 points
 
Cat: 1Col d'AllosGERSimon Geschke
10 points
 
Cat: 2Pra LoupGERSimon Geschke
10 points
 

Average speed for all riders in stage:  35,481 km./hr.
    Place:Name:Team:Time:Km/h:
GERSimon GeschkeDEUTeam Giant Alpecin04:12:17  +  00:00:00=38,290 
USAAndrew TalanskyUSATeam Cannondale - Garmin04:12:49  +  00:00:32=38,210 
COLRigoberto UranBELEtixx - Quick Step04:13:18  +  00:01:01=38,137 
4 FRAThibaut PinotFRAFDJ04:13:53  +  00:01:36=38,049 
5 SUIMathias FrankCHEIAM Cycling04:13:57  +  00:01:40=38,039 
6 NEDSteven KruijswijkNLDTeam Lotto NL - Jumbo04:14:44  +  00:02:27=37,922 
7 FRANicolas RocheGBRSky Procycling04:15:19  +  00:03:02=37,835 
8 ESPJonathan CastroviejoESPMovistar Team04:15:21  +  00:03:04=37,830 
9 BELSerge PauwelsZAFMTN - Qhubeka P/B Samsung04:15:22  +  00:03:05=37,828 
10 ENGAdam YatesAUSOrica - GreenEDGE04:15:38  +  00:03:21=37,788 
11 BELJan BakelantsFRAAg2r La Mondiale04:16:43  +  00:04:26=37,629 
12 ERIDaniel TeklehaimanotZAFMTN - Qhubeka P/B Samsung04:17:07  +  00:04:50=37,570 
13 POLRafal MajkaRUSTinkoff Saxo04:17:11  +  00:04:54=37,561 
14 ERIMerhawi GhebremedhinZAFMTN - Qhubeka P/B Samsung04:18:12  +  00:05:55=37,413 
15 CANRyder HesjedalUSATeam Cannondale - Garmin04:18:15  +  00:05:58=37,406 
16 FRAMickaël CherelFRAAg2r La Mondiale04:18:23  +  00:06:06=37,386 
17 FRAPerrig QuemeneurFRATeam Europcar04:19:12  +  00:06:55=37,269 
18 COLNairo QuintanaESPMovistar Team04:19:33  +  00:07:16=37,218 
19 ESPRafael Valls FerriITALampre-Merida04:19:33  +  00:07:16=37,218 
20 KENChristopher FroomeGBRSky Procycling04:19:33  +  00:07:16=37,218 
21 ESPAlejandro ValverdeESPMovistar Team04:19:40  +  00:07:23=37,202 
22 ITAVincenzo NibaliKAZAstana Pro Team04:19:48  +  00:07:31=37,182 
23 URSTanel KangertKAZAstana Pro Team04:20:09  +  00:07:52=37,132 
24 WALGeraint ThomasGBRSky Procycling04:20:35  +  00:08:18=37,071 
25 NEDRobert GesinkNLDTeam Lotto NL - Jumbo04:20:49  +  00:08:32=37,038 
26 CZEJan BártaDEUBora-Argon 1804:21:04  +  00:08:47=37,002 
27 FRABrice FeilluFRABretagne - Séché Environnement04:21:29  +  00:09:12=36,943 
28 AUSRichie PorteGBRSky Procycling04:21:29  +  00:09:12=36,943 
29 ESPGorka Izaguirre InsaustiESPMovistar Team04:21:38  +  00:09:21=36,922 
30 FRAWarren BarguilDEUTeam Giant Alpecin04:21:38  +  00:09:21=36,922 
31 ESPAlberto ContadorRUSTinkoff Saxo04:21:50  +  00:09:33=36,894 
32 ESPSamuel SanchezUSABMC Racing Team04:22:07  +  00:09:50=36,854 
33 FRAPierre RollandFRATeam Europcar04:22:15  +  00:09:58=36,835 
34 LUXBob JungelsUSATrek Factory Racing04:22:27  +  00:10:10=36,807 
35 NEDBauke MollemaUSATrek Factory Racing04:22:27  +  00:10:10=36,807 
36 FRARomain BardetFRAAg2r La Mondiale04:22:27  +  00:10:10=36,807 
37 ESPJosé Herrada LópezESPMovistar Team04:23:17  +  00:11:00=36,691 
38 COLJarlinson Pantano GomezCHEIAM Cycling04:23:43  +  00:11:26=36,630 
39 RSAJacques Janse Van RensburgZAFMTN - Qhubeka P/B Samsung04:23:43  +  00:11:26=36,630 
40 FRARomain SicardFRATeam Europcar04:24:28  +  00:12:11=36,526 
41 CZERoman KreuzigerRUSTinkoff Saxo04:24:33  +  00:12:16=36,515 
42 NEDWout PoelsGBRSky Procycling04:24:44  +  00:12:27=36,490 
43 ITAMichele ScarponiKAZAstana Pro Team04:24:57  +  00:12:40=36,460 
44 FRANicolas EdetFRACofidis – Solutions Crédits04:25:24  +  00:13:07=36,398 
45 FRAAlexis VuillermozFRAAg2r La Mondiale04:25:35  +  00:13:18=36,373 
46 AUSMichael RogersRUSTinkoff Saxo04:25:35  +  00:13:18=36,373 
47 FRAChristophe RiblonFRAAg2r La Mondiale04:26:59  +  00:14:42=36,182 
48 NEDStef ClementCHEIAM Cycling04:27:13  +  00:14:56=36,150 
49 ESPDaniel NavarroFRACofidis – Solutions Crédits04:27:13  +  00:14:56=36,150 
50 ESPRubén PlazaITALampre-Merida04:27:43  +  00:15:26=36,083 
51 ESPAlberto LosadaRUSTeam Katusha04:27:43  +  00:15:26=36,083 
52 ITAAdriano MaloriESPMovistar Team04:27:43  +  00:15:26=36,083 
53 HRVKristijan DurasekITALampre-Merida04:27:43  +  00:15:26=36,083 
54 FRATony GallopinBELLotto Soudal04:27:43  +  00:15:26=36,083 
55 PORNelson OliveiraITALampre-Merida04:27:57  +  00:15:40=36,052 
56 DENLars BakBELLotto Soudal04:28:04  +  00:15:47=36,036 
57 SUIMichael SchärUSABMC Racing Team04:28:30  +  00:16:13=35,978 
58 ITADamiano CarusoUSABMC Racing Team04:30:04  +  00:17:47=35,769 
59 SUIJakob FuglsangKAZAstana Pro Team04:30:04  +  00:17:47=35,769 
60 GEREmanuel BuchmannDEUBora-Argon 1804:30:20  +  00:18:03=35,734 
61 AUSAdam HansenBELLotto Soudal04:30:20  +  00:18:03=35,734 
62 SUIMarcel WyssCHEIAM Cycling04:30:20  +  00:18:03=35,734 
63 BELThomas De GendtBELLotto Soudal04:33:22  +  00:21:05=35,337 
64 NEDBram TankinkNLDTeam Lotto NL - Jumbo04:33:22  +  00:21:05=35,337 
65 FRAPierrick FédrigoFRABretagne - Séché Environnement04:33:22  +  00:21:05=35,337 
66 ESPHaimar ZubeldiaUSATrek Factory Racing04:33:22  +  00:21:05=35,337 
67 FRACyril GautierFRATeam Europcar04:33:22  +  00:21:05=35,337 
68 FRAFlorian VachonFRABretagne - Séché Environnement04:33:22  +  00:21:05=35,337 
69 SUIMartin ElmigerCHEIAM Cycling04:33:22  +  00:21:05=35,337 
70 NEDDylan Van BaarleUSATeam Cannondale - Garmin04:33:22  +  00:21:05=35,337 
71 FRAMatthieu LadagnousFRAFDJ04:33:22  +  00:21:05=35,337 
72 GERPaul MartensNLDTeam Lotto NL - Jumbo04:33:22  +  00:21:05=35,337 
73 UKRAndriy GrivkoKAZAstana Pro Team04:33:22  +  00:21:05=35,337 
74 SUIReto HollensteinCHEIAM Cycling04:33:22  +  00:21:05=35,337 
75 GERJohn DegenkolbDEUTeam Giant Alpecin04:33:22  +  00:21:05=35,337 
76 COLWinner AnaconaESPMovistar Team04:33:22  +  00:21:05=35,337 
77 NEDAlbert TimmerDEUTeam Giant Alpecin04:33:22  +  00:21:05=35,337 
78 AUTGeorg PreidlerDEUTeam Giant Alpecin04:33:22  +  00:21:05=35,337 
79 SUIGregory RastUSATrek Factory Racing04:33:22  +  00:21:05=35,337 
80 COLJulián ArredondoUSATrek Factory Racing04:33:22  +  00:21:05=35,337 
81 NEDKoen De KortDEUTeam Giant Alpecin04:33:22  +  00:21:05=35,337 
82 ENGDaniel MartinUSATeam Cannondale - Garmin04:33:22  +  00:21:05=35,337 
83 SUIDanilo WyssUSABMC Racing Team04:33:22  +  00:21:05=35,337 
84 ESPImanol ErvitiESPMovistar Team04:33:22  +  00:21:05=35,337 
85 PORTiago PintoRUSTeam Katusha04:33:22  +  00:21:05=35,337 
86 ITAMatteo TosattoRUSTinkoff Saxo04:33:22  +  00:21:05=35,337 
87 ESPJoaquim RodriguezRUSTeam Katusha04:33:22  +  00:21:05=35,337 
88 FRAJérémy RoyFRAFDJ04:33:22  +  00:21:05=35,337 
89 NEDLieuwe WestraKAZAstana Pro Team04:33:22  +  00:21:05=35,337 
90 FRAAngelo TulikFRATeam Europcar04:33:22  +  00:21:05=35,337 
91 SVKPeter SaganRUSTinkoff Saxo04:33:22  +  00:21:05=35,337 
92 CZELeopold KönigGBRSky Procycling04:33:49  +  00:21:32=35,279 
93 SLOKristjan KorenUSATeam Cannondale - Garmin04:34:30  +  00:22:13=35,191 
94 ITAGiampaolo CarusoRUSTeam Katusha04:34:30  +  00:22:13=35,191 
95 FRAJean-Christophe PeraudFRAAg2r La Mondiale04:34:30  +  00:22:13=35,191 
96 ESPLuis Angel MateFRACofidis – Solutions Crédits04:34:30  +  00:22:13=35,191 
97 ITAMatteo BonoITALampre-Merida04:34:30  +  00:22:13=35,191 
98 AUSRohan DennisUSABMC Racing Team04:34:30  +  00:22:13=35,191 
99 DENMichael ValgrenRUSTinkoff Saxo04:34:30  +  00:22:13=35,191 
100 NEDRoy CurversDEUTeam Giant Alpecin04:34:30  +  00:22:13=35,191 
101 ITADaniel OssUSABMC Racing Team04:36:03  +  00:23:46=34,994 
102 FRABenoit VaugrenardFRAFDJ04:36:51  +  00:24:34=34,893 
103 ESPMarkel IrizarUSATrek Factory Racing04:37:46  +  00:25:29=34,777 
104 FRABryan NauleauFRATeam Europcar04:37:46  +  00:25:29=34,777 
105 RSAReinardt Janse Van RensburgZAFMTN - Qhubeka P/B Samsung04:37:46  +  00:25:29=34,777 
106 WALLuke RoweGBRSky Procycling04:37:46  +  00:25:29=34,777 
107 FRADamien GaudinFRAAg2r La Mondiale04:37:46  +  00:25:29=34,777 
108 KAZDmitriy GruzdevKAZAstana Pro Team04:38:25  +  00:26:08=34,696 
109 FRAAnthony DelaplaceFRABretagne - Séché Environnement04:39:52  +  00:27:35=34,516 
110 FRAArmindo FonsecaFRABretagne - Séché Environnement04:39:52  +  00:27:35=34,516 
111 FRAThomas VoecklerFRATeam Europcar04:39:52  +  00:27:35=34,516 
112 FRAJulien SimonFRACofidis – Solutions Crédits04:39:52  +  00:27:35=34,516 
113 FRAYohann GèneFRATeam Europcar04:39:52  +  00:27:35=34,516 
114 FRAFrédéric BrunFRABretagne - Séché Environnement04:39:52  +  00:27:35=34,516 
115 FRAPierre-Luc PérichonFRABretagne - Séché Environnement04:39:52  +  00:27:35=34,516 
116 FRASylvain ChavanelCHEIAM Cycling04:42:11  +  00:29:54=34,233 
117 ITAFilippo PozzatoITALampre-Merida04:42:11  +  00:29:54=34,233 
118 CZEZdenek StybarBELEtixx - Quick Step04:42:11  +  00:29:54=34,233 
119 ITAMatteo TrentinBELEtixx - Quick Step04:42:11  +  00:29:54=34,233 
120 AUSMichael MatthewsAUSOrica - GreenEDGE04:42:11  +  00:29:54=34,233 
121 FRAAlexandre GeniezFRAFDJ04:42:11  +  00:29:54=34,233 
122 COLJosé SerpaITALampre-Merida04:42:11  +  00:29:54=34,233 
123 ITADavide CimolaiITALampre-Merida04:42:11  +  00:29:54=34,233 
124 FRAFlorian SénéchalFRACofidis – Solutions Crédits04:42:11  +  00:29:54=34,233 
125 BELKenneth VanbilsenFRACofidis – Solutions Crédits04:42:11  +  00:29:54=34,233 
126 FRAGeoffrey SoupeFRACofidis – Solutions Crédits04:42:11  +  00:29:54=34,233 
127 BELStijn DevolderUSATrek Factory Racing04:42:11  +  00:29:54=34,233 
128 FRASébastien ChavanelFRAFDJ04:42:11  +  00:29:54=34,233 
129 USATyler FarrarZAFMTN - Qhubeka P/B Samsung04:42:11  +  00:29:54=34,233 
130 FRAArnaud GérardFRABretagne - Séché Environnement04:42:11  +  00:29:54=34,233 
131 GERPaul VossDEUBora-Argon 1804:42:11  +  00:29:54=34,233 
132 IOMMark CavendishBELEtixx - Quick Step04:42:11  +  00:29:54=34,233 
133 FRABryan CoquardFRATeam Europcar04:42:11  +  00:29:54=34,233 
134 POLMichal GolasBELEtixx - Quick Step04:42:11  +  00:29:54=34,233 
135 PORJosé João PimentaDEUBora-Argon 1804:42:11  +  00:29:54=34,233 
136 AUSMark RenshawBELEtixx - Quick Step04:42:11  +  00:29:54=34,233 
137 NEDWilco KeldermanNLDTeam Lotto NL - Jumbo04:42:11  +  00:29:54=34,233 
138 POLBartosz HuzarskiDEUBora-Argon 1804:42:11  +  00:29:54=34,233 
139 BELJens DebusschereBELLotto Soudal04:42:11  +  00:29:54=34,233 
140 URSRamunas NavardauskasUSATeam Cannondale - Garmin04:42:11  +  00:29:54=34,233 
141 BELSep VanmarckeNLDTeam Lotto NL - Jumbo04:42:11  +  00:29:54=34,233 
142 AUSLuke DurbridgeAUSOrica - GreenEDGE04:42:11  +  00:29:54=34,233 
143 NEDTom LeezerNLDTeam Lotto NL - Jumbo04:42:11  +  00:29:54=34,233 
144 ITAManuel QuinziatoUSABMC Racing Team04:42:11  +  00:29:54=34,233 
145 FRAChristophe LaporteFRACofidis – Solutions Crédits04:42:11  +  00:29:54=34,233 
146 ITAJacopo GuarnieriRUSTeam Katusha04:42:11  +  00:29:54=34,233 
147 BELJulien VermoteBELEtixx - Quick Step04:42:11  +  00:29:54=34,233 
148 NEDJos Van EmdenNLDTeam Lotto NL - Jumbo04:42:11  +  00:29:54=34,233 
149 GERAndré GreipelBELLotto Soudal04:42:11  +  00:29:54=34,233 
150 AUTMatthias BrändleCHEIAM Cycling04:42:11  +  00:29:54=34,233 
151 GERMarcel SiebergBELLotto Soudal04:42:11  +  00:29:54=34,233 
152 AUTMarco HallerRUSTeam Katusha04:42:11  +  00:29:54=34,233 
153 FRAArnaud DémareFRAFDJ04:42:11  +  00:29:54=34,233 
154 NOREdvald Boasson HagenZAFMTN - Qhubeka P/B Samsung04:42:11  +  00:29:54=34,233 
155 ENGSimon YatesAUSOrica - GreenEDGE04:42:11  +  00:29:54=34,233 
156 NORAlexander KristoffRUSTeam Katusha04:42:11  +  00:29:54=34,233 
157 CANSvein TuftAUSOrica - GreenEDGE04:42:11  +  00:29:54=34,233 
158 NEDLaurens ten DamNLDTeam Lotto NL - Jumbo04:42:11  +  00:29:54=34,233 
159 ENGStephen CummingsZAFMTN - Qhubeka P/B Samsung04:42:11  +  00:29:54=34,233 
160 BELTim WellensBELLotto Soudal04:42:11  +  00:29:54=34,233 
161 NEDPieter WeeningAUSOrica - GreenEDGE04:42:11  +  00:29:54=34,233 
162 ENGIan StannardGBRSky Procycling04:42:11  +  00:29:54=34,233 
163 RSALouis MeintjesZAFMTN - Qhubeka P/B Samsung04:49:26  +  00:37:09=33,376 

Withdrawls: 6
 
Rider
Team
Reason
61  USATejay Van GarderenUSABMC Racing TeamDid not finish
111  POLMichal KwiatkowskiBELEtixx - Quick StepDid not finish
145  LUXLaurent DidierUSATrek Factory RacingDid not start
163  AUSNathan HaasUSATeam Cannondale - GarminDid not finish
185  FRAJérôme CoppelCHEIAM CyclingDid not finish
193  BELSam BennettDEUBora-Argon 18Did not finish

Todays birthdays.

1890  Maurice Lartigue
1892  Mosé Arosio
1896  Henri Drapel
1919  Bernardo Capo
1920  Kléber Piot
1926  Victorio Garcia
1946  Lucien Van Impe
1946  Pierfranco Vianelli
1948  Jacques Boulas
1948  Yves Hézard
1962  Jan Goessens
1962  Jens Veggerby
1980  Patrik Sinkewitz
1986  Wesley Sulzberger